This is the latest recevied weather packets stored in our database for station/object KC1BRV. If no packets are shown the sender has not sent any weather packets the latest 10 day(s).
| Time | Temp. | Humidity | Pressure | Rain* | Wind** | Luminosity | Snow |
|---|---|---|---|---|---|---|---|
| 1777933507 | 16.67° C | 45% | 1010.3 hPa | 0 mm | - | 26 W/m² | - |
| 1777933204 | 16.67° C | 45% | 1010.3 hPa | 0 mm | - | 32 W/m² | - |
| 1777932901 | 17.22° C | 44% | 1010.4 hPa | 0 mm | - | 32 W/m² | - |
| 1777932598 | 17.22° C | 44% | 1010.5 hPa | 0 mm | - | 46 W/m² | - |
| 1777932294 | 17.22° C | 43% | 1010.4 hPa | 0 mm | - | 56 W/m² | - |
| 1777931991 | 17.22° C | 44% | 1010.4 hPa | 0 mm | - | 68 W/m² | - |
| 1777931687 | 17.78° C | 44% | 1010.4 hPa | 0 mm | - | 68 W/m² | - |
| 1777931385 | 17.78° C | 43% | 1010.5 hPa | 0 mm | - | 62 W/m² | - |
| 1777931081 | 17.78° C | 42% | 1010.4 hPa | 0 mm | - | 42 W/m² | - |
| 1777930777 | 17.78° C | 43% | 1010.4 hPa | 0 mm | - | 43 W/m² | - |
| 1777930473 | 17.78° C | 42% | 1010.5 hPa | 0 mm | - | 45 W/m² | - |
| 1777930172 | 18.33° C | 41% | 1010.5 hPa | 0 mm | - | 45 W/m² | - |
| 1777929866 | 18.33° C | 42% | 1010.3 hPa | 0 mm | - | 45 W/m² | - |
| 1777929565 | 18.33° C | 42% | 1010.3 hPa | 0 mm | - | 47 W/m² | - |
| 1777929260 | 18.33° C | 42% | 1010.4 hPa | 0 mm | - | 49 W/m² | - |
| 1777928958 | 18.33° C | 43% | 1010.5 hPa | 0 mm | - | 50 W/m² | - |
| 1777928655 | 18.33° C | 42% | 1010.3 hPa | 0 mm | - | 51 W/m² | - |
| 1777928352 | 18.33° C | 41% | 1010.2 hPa | 0 mm | - | 52 W/m² | - |
| 1777928050 | 18.33° C | 41% | 1010 hPa | 0 mm | - | 54 W/m² | - |
| 1777927747 | 18.89° C | 41% | 1010.2 hPa | 0 mm | - | 54 W/m² | - |
| 1777927446 | 18.89° C | 41% | 1010.2 hPa | 0 mm | - | 56 W/m² | - |
| 1777927145 | 18.89° C | 41% | 1010 hPa | 0 mm | - | 57 W/m² | - |
| 1777926841 | 18.89° C | 40% | 1010 hPa | 0 mm | - | 59 W/m² | - |
| 1777926537 | 19.44° C | 40% | 1010.4 hPa | 0 mm | - | 61 W/m² | - |
| 1777926234 | 19.44° C | 40% | 1010 hPa | 0 mm | - | 146 W/m² | - |
* Rain latest hour (hover to see other rain measurements)
** Current wind speed in m/s (hover to see current wind gust speed)